Location: Lac Lasalle
(46.0398°N, 74.1576°W)
Time: 01:22:36
(UTC-05:00)

AO-73 - Pass Details

Date: 10 December 2019
Orbit: 581 x 664 km, 97.6° (Epoch: 20 January)

Event Time Altitude Azimuth Distance (km) Brightness Sun altitude
Rises 06:10:39 0° 16° (NNE) 2,872 ? -12.7°
Reaches altitude 10° 06:12:53 10° 20° (NNE) 1,951 ? -12.4°
Maximum altitude 06:17:04 60° 100° (E) 682 ? -11.7°
Drops below altitude 10° 06:21:09 10° 181° (S) 1,902 ? -11.0°
Sets 06:23:18 0° 185° (S) 2,792 ? -10.7°
